Wind_Speed
33 32 31 28 26 23 20 18 16 14 13 13 12 14 16 19 23 17 16 12 3 6 7 11 10 12 14 12 14 13 9 12 17 19 17 15 18 14 17 13 13 11 9 11 10
36 34 33 31 28 25 22 19 17 15 14 13 12 13 15 18 21 22 20 16 13 11 7 14 11 12 9 12 11 10 10 19 18 19 18 19 18 16 16 18 16 14 11 8 14
38 36 35 33 31 28 24 20 18 16 14 14 12 12 13 15 12 5 8 11 9 8 10 11 10 9 13 15 16 17 17 19 19 22 21 20 21 17 16 18 15 17 15 13 14
40 38 37 34 33 29 25 22 19 17 15 13 11 10 11 7 6 5 5 6 10 7 6 10 8 11 14 15 15 19 20 20 24 18 20 18 17 18 17 18 17 17 15 12 11
43 41 38 36 34 31 27 23 20 17 15 13 11 8 7 9 19 10 6 7 7 7 9 10 12 12 16 13 17 21 22 20 21 19 17 16 18 20 20 20 18 17 11 9 6
44 44 40 38 36 33 29 25 21 18 16 14 9 7 8 16 11 5 8 8 8 12 14 13 12 14 17 19 19 21 23 21 18 20 19 21 21 18 19 17 14 11 7 4 4
48 45 42 40 38 34 30 26 22 18 15 11 8 6 12 21 5 8 9 12 12 13 11 14 11 10 10 13 10 15 18 19 20 22 22 20 19 14 21 12 7 6 3 1 5
47 47 44 42 38 35 30 26 21 17 12 10 8 7 10 15 28 31 23 17 16 15 11 10 4 8 11 13 17 17 20 19 21 23 20 7 13 14 6 6 7 4 6 12 10
44 47 46 45 39 36 30 25 19 13 12 9 5 9 15 10 22 30 23 26 19 17 14 13 11 15 12 14 14 15 18 21 21 14 13 13 14 12 10 7 10 14 13 6 6
33 50 46 45 41 37 30 25 18 13 9 6 12 6 14 16 20 21 24 25 16 11 9 12 8 10 14 14 15 17 20 19 18 16 10 12 14 12 12 15 15 14 12 9 8
29 49 50 46 45 40 36 26 8 3 12 12 13 16 7 12 8 14 16 19 18 15 16 17 13 18 21 21 23 22 21 22 20 18 18 16 16 14 14 16 17 15 10 1 11
36 33 55 47 48 48 43 17 28 3 9 25 25 23 29 18 12 14 20 16 19 17 19 13 19 20 22 19 21 18 20 21 22 19 18 17 14 15 20 21 20 12 12 15 12
39 41 32 48 51 52 49 44 21 25 6 12 30 32 25 23 15 18 22 22 20 21 21 21 16 23 20 18 18 20 21 19 21 21 19 16 20 21 9 10 18 17 15 11 10
34 31 33 48 42 45 40 37 16 19 5 12 23 12 27 23 27 26 26 17 13 22 20 20 22 20 14 17 17 21 17 19 19 15 14 14 13 13 8 9 17 14 10 8 8
32 33 32 44 18 29 29 37 22 5 6 9 27 13 19 29 12 26 31 22 22 22 16 20 15 16 21 26 18 19 15 15 16 16 17 17 11 9 17 18 14 10 10 8 10
28 40 34 52 42 44 40 39 20 8 12 7 11 23 22 32 30 6 23 24 21 20 24 24 16 20 25 18 21 21 20 16 14 11 13 15 14 3 9 18 14 10 8 6 7
30 31 36 50 27 44 48 19 9 17 8 11 14 18 28 28 29 25 28 29 22 16 25 24 27 25 25 15 17 10 11 6 8 8 10 9 13 9 11 15 15 10 7 7 6
30 31 34 42 34 53 35 14 12 14 30 10 20 21 27 27 31 30 25 27 27 24 12 20 21 30 22 24 18 19 18 8 9 11 14 16 11 8 16 17 14 9 6 7 11
24 28 30 40 39 52 18 21 14 21 28 15 22 25 26 27 14 27 31 25 29 27 20 15 20 16 22 16 21 18 22 17 17 16 10 8 12 11 16 15 12 11 11 10 9
23 16 24 37 46 33 20 16 15 23 19 29 18 21 25 30 25 25 25 23 28 31 28 13 10 8 11 17 22 24 10 15 6 5 8 9 11 8 11 11 10 11 11 12 14
23 6 16 36 36 19 22 14 9 26 20 32 29 20 25 24 29 30 22 15 32 27 27 9 3 11 13 14 16 8 6 5 7 7 3 5 4 10 10 9 11 11 12 14 14
12 11 18 41 14 12 21 11 12 18 26 4 16 24 20 25 28 24 30 24 26 23 31 6 4 8 20 4 9 16 11 7 4 5 1 2 8 5 7 12 13 14 14 14 13
8 13 17 35 15 9 4 5 8 14 14 10 9 16 22 21 13 25 22 8 5 15 17 12 9 6 3 6 12 11 9 6 7 2 7 6 5 8 7 15 14 14 15 15 14
6 9 5 12 17 12 13 11 6 6 10 7 7 8 11 3 5 9 6 7 8 8 7 5 6 10 10 5 10 15 13 11 7 4 6 15 21 15 17 17 16 14 14 13 15
5 5 8 9 13 17 19 18 14 7 4 9 7 19 14 5 4 7 10 11 5 2 5 3 5 6 6 8 7 12 14 16 15 14 9 9 20 18 15 17 13 14 14 16 17
5 5 6 16 18 19 20 17 25 10 12 13 10 17 19 13 11 18 14 13 6 8 7 3 4 4 4 8 8 10 14 16 19 20 22 22 23 18 19 14 10 13 14 15 15
8 12 11 21 17 15 12 16 24 21 3 15 17 13 9 9 10 14 11 10 13 10 5 6 6 4 4 11 11 11 16 20 19 20 18 20 16 14 14 12 11 12 13 15 15
Wind_Direction
242 239 240 238 240 240 242 248 252 262 274 286 299 310 315 315 310 303 260 254 222 268 287 270 243 246 236 248 250 257 261 261 265 271 296 327 321 329 334 313 307 295 257 255 288
242 241 239 238 238 239 240 242 248 253 265 279 296 307 313 317 311 282 258 247 262 272 263 259 251 235 250 254 238 214 247 250 266 301 313 327 321 321 317 302 298 304 299 297 219
241 241 240 238 237 238 238 239 244 252 258 272 290 303 310 322 296 288 209 221 240 202 249 275 280 283 258 264 250 237 247 265 279 285 314 308 299 298 299 292 299 307 316 311 304
242 238 238 237 237 236 236 236 239 247 255 266 281 293 300 314 279 98 133 158 169 183 274 259 258 259 260 265 260 263 260 263 268 285 298 293 295 293 286 283 284 283 284 280 276
243 239 236 235 236 234 232 232 233 239 248 262 271 285 304 235 252 242 179 169 180 222 251 263 269 278 270 275 279 273 270 277 280 280 279 290 278 280 279 278 277 279 275 271 269
243 240 234 232 232 232 229 227 229 230 242 257 259 270 249 254 256 193 196 205 225 237 245 250 260 270 281 280 276 283 290 286 293 287 280 278 276 274 275 278 266 283 275 344 349
241 239 235 231 230 228 225 223 222 225 235 247 243 259 260 241 247 248 234 242 240 246 256 259 269 269 274 266 293 294 291 286 275 269 267 264 274 268 261 291 208 266 262 88 232
241 239 235 231 227 224 219 216 214 218 228 232 231 256 256 258 252 256 241 248 242 242 245 272 275 277 277 287 289 277 274 271 272 263 252 201 262 279 326 6 271 216 273 281 305
234 238 235 230 224 219 212 206 203 208 221 209 222 220 264 269 233 238 233 237 238 232 240 252 245 244 254 249 261 248 256 266 281 275 212 215 257 277 291 231 244 267 284 299 297
256 230 233 229 220 212 198 188 183 189 190 210 248 285 247 248 237 228 233 226 228 226 213 219 218 229 217 237 239 250 243 246 251 257 268 271 271 299 304 287 270 264 257 238 245
256 237 228 219 214 200 174 141 127 204 218 202 194 212 232 252 158 204 199 197 208 205 210 196 208 224 228 225 246 262 271 279 290 303 299 283 280 286 280 268 268 258 265 131 79
243 239 221 209 206 194 173 193 190 158 208 220 248 224 249 275 206 228 177 182 191 206 208 194 222 230 232 241 238 246 259 264 267 278 274 278 287 291 273 263 254 262 69 61 58
241 238 229 213 193 183 188 197 189 230 265 218 219 228 226 228 232 213 187 203 195 208 210 224 222 222 236 250 245 243 253 270 283 287 291 299 280 274 221 121 89 86 88 74 58
236 234 237 201 173 189 201 191 189 190 253 244 214 237 224 231 233 241 192 202 224 219 226 244 232 237 217 233 261 250 250 256 267 288 281 297 290 279 259 108 102 97 90 67 42
251 240 230 198 185 186 195 183 185 148 235 196 215 165 185 202 135 209 229 205 222 220 212 218 213 239 250 250 222 259 266 267 283 282 286 265 264 246 240 140 126 114 88 69 50
263 239 225 203 206 194 176 174 152 170 215 232 200 202 187 201 213 201 201 205 221 246 228 236 240 247 256 247 251 243 245 259 268 273 262 255 240 341 232 128 132 115 99 79 74
273 243 229 200 201 177 162 153 189 199 157 210 196 191 199 195 206 214 193 202 203 208 230 233 231 236 242 239 244 217 214 229 224 217 248 227 228 193 98 110 127 125 98 61 43
266 263 222 206 191 163 160 176 199 175 202 161 180 192 195 189 206 205 208 208 202 214 223 219 237 224 218 219 218 207 206 198 223 225 253 238 235 224 113 129 122 101 70 19 7
264 269 242 210 194 163 173 198 183 192 209 211 178 185 198 203 188 205 210 214 206 212 213 216 229 220 210 199 221 206 219 223 271 284 286 251 271 288 79 72 49 27 7 358 349
254 250 248 212 194 183 188 194 193 205 189 203 196 198 189 198 199 197 191 215 215 208 225 244 240 217 157 172 216 235 249 210 217 192 224 252 256 259 61 39 20 6 355 345 341
229 235 221 205 194 193 200 191 187 208 219 191 214 192 201 195 197 194 198 213 199 199 211 195 229 177 160 205 194 184 231 182 209 225 245 271 241 86 49 30 6 344 334 332 322
201 219 186 174 201 208 202 167 172 192 212 278 223 216 211 202 197 206 207 203 189 203 194 125 143 190 194 185 264 210 204 162 189 201 207 320 240 30 39 12 342 323 320 314 321
186 208 198 175 210 203 219 119 166 167 184 171 178 227 223 226 219 206 191 10 118 154 167 155 156 131 175 327 268 212 213 125 102 77 207 209 248 138 347 339 319 311 319 309 317
159 192 216 197 201 194 175 169 132 190 158 168 160 211 189 68 91 171 136 174 173 153 67 164 163 201 193 117 163 205 209 194 141 191 230 234 270 276 301 300 302 305 306 333 341
183 186 194 173 184 181 180 164 146 141 125 161 181 195 166 130 121 161 139 143 107 56 108 105 146 159 114 178 190 199 205 202 203 219 225 240 255 277 280 279 301 297 333 339 327
192 148 204 172 148 171 173 182 167 140 153 185 188 194 187 173 183 167 147 159 150 144 105 53 109 103 168 215 229 243 240 222 222 224 228 242 251 256 268 285 309 337 339 315 319
196 157 181 162 164 167 177 163 180 148 30 192 168 151 167 166 110 116 90 83 132 135 122 118 129 133 168 213 231 254 233 238 242 245 251 255 269 284 284 310 330 336 320 314 316
Height
772 775 779 780 783 785 786 788 789 790 790 790 789 788 786 783 779 778 773 769 768 767 768 766 763 762 761 758 755 752 776 776 761 750 736 717 726 717 718 727 726 726 729 729 734
767 770 774 776 779 781 783 785 787 787 788 788 788 786 785 782 778 771 765 764 765 766 767 764 759 755 758 755 751 760 769 760 740 733 735 728 730 729 735 736 733 728 723 724 727
760 764 768 771 774 778 780 782 784 786 786 787 786 785 784 782 776 754 758 760 762 765 766 763 760 757 761 751 747 748 760 745 741 734 731 736 736 730 737 742 734 734 729 726 725
753 757 762 766 770 773 776 778 781 783 784 784 784 784 783 783 779 758 759 759 761 763 764 762 759 761 761 758 742 753 739 739 737 732 736 739 735 740 738 736 727 724 722 722 724
747 751 755 759 764 769 772 775 777 780 782 782 783 782 783 776 765 759 760 760 762 763 763 761 760 758 762 753 747 748 740 734 730 730 732 732 739 737 733 724 720 718 717 719 719
738 744 747 752 758 764 768 771 774 776 779 780 781 781 783 777 759 757 760 760 761 761 759 759 758 754 756 755 755 745 740 734 734 736 734 738 734 731 724 715 716 714 715 717 720
729 735 740 745 752 758 763 768 771 773 776 778 779 780 775 762 756 756 758 758 758 757 755 754 753 754 750 753 743 743 752 744 740 735 734 725 735 734 715 709 713 714 715 717 719
719 726 732 739 745 752 759 764 768 771 774 775 777 779 765 756 754 754 755 755 756 755 756 756 756 759 758 752 752 758 753 758 734 723 718 726 749 723 711 715 716 716 715 714 714
712 717 724 732 738 747 755 761 766 770 773 774 775 775 760 748 745 744 747 747 752 753 754 757 758 760 759 764 765 755 762 749 735 707 716 719 735 719 711 714 718 715 712 713 715
705 709 715 724 732 742 750 759 763 768 773 775 771 772 753 739 735 737 741 744 746 747 753 756 757 759 759 760 766 753 744 734 734 716 709 717 721 713 711 712 712 709 708 709 711
690 703 705 712 724 734 744 756 766 770 766 749 743 737 721 730 731 732 733 737 742 747 756 750 761 758 747 741 742 738 738 736 723 713 721 723 722 717 711 708 707 702 701 703 712
688 695 693 701 711 721 731 732 730 731 748 747 740 735 732 728 731 730 729 735 739 745 742 744 748 736 728 727 730 735 741 739 726 716 720 719 721 712 704 700 696 696 707 719 723
682 686 688 692 700 714 711 717 729 731 733 722 728 724 728 727 725 721 725 724 730 737 732 734 724 717 726 727 730 729 733 733 735 723 716 726 726 708 690 689 698 710 716 724 727
673 675 686 691 697 702 706 724 730 733 742 717 709 707 716 720 718 718 714 721 726 727 727 723 713 714 720 728 726 733 721 726 728 732 743 724 740 716 698 702 710 719 725 728 728
667 672 678 685 680 689 706 721 725 727 745 687 684 689 692 702 698 705 706 713 720 720 718 715 716 721 724 721 722 729 722 725 728 734 735 734 730 715 688 714 720 722 725 728 729
662 664 669 672 678 682 694 710 719 728 722 690 677 675 687 692 694 690 702 705 709 717 709 713 710 715 715 710 711 712 722 725 729 740 745 728 727 713 696 704 716 720 724 727 731
654 655 659 661 659 672 679 699 705 694 685 670 670 673 680 682 694 698 698 704 712 732 720 716 710 706 701 717 711 715 731 755 759 756 738 701 708 706 695 697 709 719 723 725 727
647 651 647 653 657 659 667 682 673 678 666 638 659 670 673 674 685 691 688 693 696 700 703 717 723 704 696 707 716 721 722 735 750 738 716 690 705 695 689 697 705 712 717 719 723
645 643 642 643 650 649 656 652 643 650 645 644 652 665 670 666 671 685 677 683 678 693 702 693 695 672 683 695 706 710 719 710 724 721 731 708 684 671 687 708 713 719 721 725 727
639 640 632 636 640 640 636 637 652 636 629 650 648 643 655 658 668 669 674 667 674 676 679 681 694 680 686 693 701 704 700 727 733 755 750 711 705 701 708 720 724 726 727 727 727
634 631 616 628 631 619 613 633 646 636 630 639 634 638 638 644 646 649 649 651 656 661 674 682 693 699 697 702 703 711 717 712 724 730 736 729 713 711 720 721 725 726 726 726 725
616 617 607 615 617 610 612 625 631 634 636 645 635 630 631 632 637 639 646 646 638 645 667 682 702 714 702 701 698 699 713 724 744 749 747 750 720 701 715 724 725 723 721 721 720
597 603 603 600 598 609 619 628 630 636 641 649 647 639 628 636 645 641 640 660 650 656 671 681 708 726 735 739 716 713 712 718 751 760 743 748 720 705 711 722 721 722 720 719 718
591 589 595 586 593 605 611 623 636 634 640 642 646 642 640 661 654 660 671 675 668 671 684 680 693 697 700 703 708 719 716 720 743 747 738 731 724 719 720 722 720 719 718 718 719
572 571 563 568 582 594 597 610 621 635 641 644 651 635 643 673 679 679 681 679 684 694 689 695 709 718 731 715 710 709 712 718 728 735 740 728 722 720 721 720 716 714 716 719 721
559 559 561 556 583 590 593 602 600 622 630 637 630 636 631 647 647 665 674 682 691 696 702 708 720 729 735 720 715 717 711 710 713 715 721 723 719 714 710 708 710 713 719 722 721
537 537 539 543 569 577 582 593 588 608 627 617 624 632 648 652 653 666 677 684 690 699 711 719 727 734 735 731 724 725 714 711 708 706 709 711 707 706 705 707 712 716 719 719 716